www.pogodaiklimat.ru

Погода и климат >> Архив погоды >> Россия >> город Севастополь >> Севастополь


АРХИВ ПОГОДЫ в Севастополе

Время (UTC), дата Ветер
(напр.,м/с)
 
Видим.   Явления Облачность Т
(С)
Тd
(С)
f
(%)
Тe
(С)
Тes
(С)
Комфортность P
(гПа)
Po
(гПа)
Тmin
(С)
Tmax
(С)
R
(мм)
R24
(мм)
S
(см)
06 19.06 СВ 4 20 км ясно +27.9 +16.8 51 +32 +38 душно 1012.7 1012.0 +19.2
09 19.06 В 6 20 км 3/3 1000 м
[Cu hum]
+30.8 +14.0 36 +32 +39 жарко 1012.7 1012.0
12 19.06 ЮЗ 4 20 км 3/3 600 м
[Cu med, cong]
+32.4 +15.8 37 +35 +41 душно 1012.7 1012.0
15 19.06 З 3 20 км 6/0
[Ac trans Ci fib]
+27.5 +20.6 66 +34 +35 очень
душно
1011.4 1010.7
18 19.06 штиль 0 20 км 8/0
[Ac cast]
+25.7 +21.6 78 +33 +33 очень
душно
1010.7 1010.2 +30.1
21 19.06 В 2 20 км 4/0
[Ac cast]
+21.9 +18.7 82 +27 +27 душно 1011.4 1010.7
00 20.06 В 2 20 км 3/0
[Ac cast]
+20.6 +17.4 82 +25 +25 комфорт 1011.4 1010.7
03 20.06 СВ 4 20 км 8/4 1000 м
[Sc diur, vesp Ac cast]
+22.5 +18.6 79 +28 +28 душно 1009.7 1009.2 +21.1
06 20.06 штиль 0 20 км 6/0
[Ac cast]
+24.9 +18.1 66 +29 +30 душно 1011.4 1010.7 +20.0
09 20.06 СЗ 4 20 км 9/3 600 м
[Cu med, cong Ac cast Ci fib]
+31.7 +22.4 58 +41 +45 опасность
перегрева
1010.0 1009.3
12 20.06 СВ 4 20 км 9/6 600 м
[Cu med, cong Ci fib]
+32.5 +18.6 44 +37 +38 очень
душно
1010.0 1009.3
15 20.06 СЗ 4 20 км 8/3 600 м
[Cu med, cong Ci fib]
+32.0 +21.2 53 +40 +41 очень
душно
1008.7 1008.0
18 20.06 СВ 3 20 км 4/0
[Ci fib]
+27.0 +21.0 70 +34 +34 очень
душно
1009.1 1008.6 +31.1
21 20.06 В 1 20 км ясно +24.6 +17.1 63 +28 +28 душно 1011.4 1010.7
00 21.06 В 3 20 км ясно +21.9 +17.3 75 +26 +26 душно 1011.4 1010.7
03 21.06 СВ 4 20 км 5/0
[Ci fib]
+23.7 +17.5 68 +28 +28 душно 1010.1 1009.6 +22.7
06 21.06 В 1 20 км 4/0
[Ci fib]
+29.0 +19.6 57 +35 +41 очень
душно
1011.4 1010.7 +21.5
09 21.06 СВ 8 20 км 3/3 600 м
[Cu hum]
+34.0 +18.5 40 +39 +41 очень
душно
1011.4 1010.7
12 21.06 ЮВ 4
{11}
20 км гроза без осадков 8/6 600 м
[Cb cap Ac cast]
+30.2 +20.1 55 +37 +39 очень
душно
1010.6 1010.1
15 21.06 В 6
{11}
20 км в посл. час ливневой дождь {гроза} 9/6 600 м
[Cb cap Ci fib]
+28.6 +17.8 52 +33 +33 очень
душно
1010.4 1009.9 1
18 21.06 Ю 2
{10}
20 км {гроза, ливн. осадки} 4/3 600 м
[Cu hum Ac cast]
+26.7 +22.1 76 +35 +35 очень
душно
1011.0 1010.5 +33.1 1
21 21.06 В 2 20 км ясно +23.8 +21.9 89 +31 +31 очень
душно
1012.7 1012.0
00 22.06 В 2 20 км ясно +21.8 +20.3 91 +28 +28 душно 1012.7 1012.0
03 22.06 СВ 3 20 км 3/3 600 м
[Cu hum Ac cast]
+22.9 +19.0 79 +29 +29 очень
душно
1011.4 1010.9 +21.6 0.1
06 22.06 СВ 4 20 км 3/0
[Ac lent]
+29.7 +17.5 48 +34 +36 очень
душно
1014.0 1013.3 +21.0
09 22.06 В 8
{11}
20 км 6/4 600 м
[Cu hum Ac cast]
+30.2 +17.3 46 +34 +35 очень
душно
1014.0 1013.3
12 22.06 СВ 5
{10}
20 км 8/5 600 м
[Cu med, cong Ac cast]
+30.6 +18.3 48 +35 +38 очень
душно
1013.3 1012.8
15 22.06 СВ 6
{11}
20 км 4/4 600 м
[Cu med, cong]
+29.6 +16.9 46 +33 +34 душно 1012.3 1011.8
18 22.06 СВ 4
{10}
20 км 8/4 1000 м
[Sc diur, vesp Ac cast]
+26.5 +16.7 55 +30 +30 душно 1013.0 1012.5 +32.6
21 22.06 СВ 9-12
{14}
20 км 9/9 600 м
[Cb cap]
+21.3 +18.3 83 +26 +26 душно 1013.8 1013.3
00 23.06 СВ 5
{12}
20 км {ливн. осадки} 6/4 600 м
[Cb cap Ac cast]
+21.1 +18.0 82 +25 +25 комфорт 1012.8 1012.3
03 23.06 СВ 5
{12}
20 км 3/0
[Ac cast]
+21.3 +18.0 81 +25 +26 комфорт 1012.2 1011.7 +20.6 0.5
06 23.06 С 3 20 км 8/4 1000 м
[Sc diur, vesp Ac cast]
+23.5 +18.3 73 +28 +30 душно 1012.7 1012.2 +20.6 0.5
09 23.06 С 2 20 км 9/8 600 м
[Cb cap Ac cast]
+25.2 +20.0 73 +31 +37 очень
душно
1014.0 1013.3
12 23.06 СЗ 4 20 км 5/3 600 м
[Cu med, cong Ac cast]
+25.7 +20.7 74 +32 +40 очень
душно
1014.0 1013.3
15 23.06 З 2 20 км 9/9 600 м
[Sc diur, vesp]
+28.2 +18.6 56 +33 +34 очень
душно
1012.7 1012.0
18 23.06 ЮЗ 3 20 км 3/3 1000 м
[Cu med, cong]
+25.5 +23.3 88 +34 +34 очень
душно
1011.4 1010.9 +27.7
21 23.06 В 2 20 км ясно +23.3 +21.0 87 +31 +31 очень
душно
1012.7 1012.0
00 24.06 В 2 20 км ясно +22.0 +20.3 90 +28 +28 душно 1012.7 1012.0
03 24.06 С 2 20 км 3/3 600 м
[Cb cap]
+23.7 +22.1 91 +31 +31 очень
душно
1012.3 1011.8 +23.1
06 24.06 СЗ 2 20 км 3/3 600 м
[Cu med, cong]
+25.7 +22.4 82 +34 +41 очень
душно
1014.0 1013.3 +20.9
09 24.06 СЗ 3 50 км 4/4 600 м
[Cu med, cong]
+26.4 +23.1 82 +35 +48 очень
душно
1014.0 1013.3
12 24.06 СЗ 5 20 км 6/6 600 м
[Cu med, cong]
+27.1 +23.5 81 +37 +41 очень
душно
1014.0 1013.3
15 24.06 СЗ 4 20 км 4/4 600 м
[Cu med, cong]
+27.9 +23.3 76 +38 +40 очень
душно
1014.0 1013.3
18 24.06 СЗ 1 20 км ясно +25.9 +23.8 88 +35 +35 очень
душно
1014.0 1013.3 +28.1
21 24.06 В 1 20 км ясно +24.7 +22.9 90 +33 +33 очень
душно
1015.4 1014.7
00 25.06 В 2 20 км ясно +22.5 +21.3 93 +30 +30 очень
душно
1015.4 1014.7
03 25.06 штиль 0 20 км ясно +22.1 +20.4 90 +28 +29 душно 1014.6 1014.1 +22.1
06 25.06 СЗ 2 20 км ясно +25.2 +22.3 84 +33 +42 очень
душно
1016.7 1016.0 +21.7
09 25.06 З 5 20 км 6/4 600 м
[Cb cap Ci fib]
+26.0 +21.4 76 +33 +36 очень
душно
1016.7 1016.0
12 25.06 С 5
{11}
4000 м гроза, ливневой дождь 10/10 300 м
[Cb cap]
+22.9 +21.8 94 +31 +31 очень
душно
1017.2 1016.7
15 25.06 СВ 3 20 км {гроза, ливн. осадки} 8/0
[Ac lent Ci fib]
+25.3 +21.6 80 +32 +34 очень
душно
1016.5 1016.0 6
18 25.06 С 2 20 км {гроза, ливн. осадки} 4/0
[Ac lent]
+24.5 +22.6 89 +32 +32 очень
душно
1017.7 1017.2 +29.0 6
21 25.06 В 1 20 км ясно +22.9 +21.3 91 +30 +30 очень
душно
1019.4 1018.7
00 26.06 СВ 2 20 км ясно +22.7 +21.0 90 +30 +30 очень
душно
1019.4 1018.7
03 26.06 В 1 20 км ясно +22.1 +19.5 85 +28 +28 душно 1019.4 1018.7 +22.0

 

Местоположение метеостанции Севастополь (город Севастополь, Россия): широта 44.62 долгота 33.53 высота над уровнем моря 6 м.

В архиве по умолчанию представлена погода в Севастополе за последнюю неделю. Архивные данные за месяц целиком и за предыдущие месяцы, начиная с января 2011 года, Вы можете получить, выбрав интересующий диапазон дат из раскрывающегося списка и нажав кнопку "Ввод!".


*Определитесь, кто Вы:
робот инопланетянин человек

Внимание! Время в таблицах - всемирное. Для получения местного времени необходимо прибавить поправку, которая равна 3 ч.

Смотрите также архив погоды в соседних городах и на ближайших метеорологических станциях:

Погода в Херсонесском Маяке (город Севастополь, Россия) (13 км)
Погода в Почтовом (Крым, Россия) (41 км)
Погода на Ай-Петри (Крым, Россия) (47 км)
Погода в Ялте (Крым, Россия) (53 км)
Погода в Симферополе (Крым, Россия) (57 км)
Погода в Никитском саду (Крым, Россия) (58 км)
Погода в Симферополе город (Крым, Россия) (59 км)
Погода в Евпатории (Крым, Россия) (64 км)
Погода на Ангарском Перевале (Крым, Россия) (66 км)
Погода в Алуште (Крым, Россия) (69 км)

Пояснения к столбцам:

Ветер - указаны скорость ветра в м/с - средняя за 10 мин, порывы в срок и между сроками (в фигурных скобках) и направление, откуда дует ветер: С - северный, СВ - северо-восточный, В - восточный, ЮВ - юго-восточный, Ю - южный, ЮЗ - юго-западный, З - западный, СЗ - северо-западный.
Видимость - горизонтальная дальность видимости в метрах или километрах. При видимости от 1 до 10 км при отсутствии осадков обычно наблюдается дымка, при ухудшении видимости до 1 км и менее - туман. В сухую погоду видимость может ухудшаться дымом, пылью или мглою.
Явления - указаны атмосферные явления, наблюдавшиеся в срок или в последний час перед сроком; фигурными скобками обозначены явления, наблюдавшиеся между сроками (за 1-3 часа до срока); квадратными скобками обозначены град или гололедные отложения с указанием их диаметра в мм.
Облачность - указаны через наклонную черту общая и нижняя облачность в баллах и высота нижней границы облаков в метрах; квадратными скобками обозначены формы облаков: Ci - перистые, Cs - перисто-слоистые, Cc - перисто-кучевые, Ac - высококучевые, As - высокослоистые, Sc - слоисто-кучевые, Ns - слоисто-дождевые, Cu - кучевые, Cb - кучево-дождевые. Подробнее классификацию облаков см. в Атласе облаков (PDF).
T - Температура воздуха - температура, измеренная на высоте 2 м над землей.
Td - Температура точки росы - температура, при понижении до которой содержащийся в воздухе водяной пар достигнет насыщения.
f - Относительная влажность воздуха - влажноcть воздуха, измеренная на высоте 2 м над землей.
Te - Эффективная температура - температура, которую ощущает одетый по сезону человек в тени. Характеристика душности погоды. При расчете учитывается влияние влажности воздуха и скорости ветра на теплоощущения человека.
Tes - Эффективная температура на солнце - температура, которую ощущает человек, с поправкой на солнечный нагрев. Характеристика знойности погоды. Зависит от высоты солнца над горизонтом, облачности и скорости ветра. Ночью, в пасмурную погоду, а также при ветре 12 м/с и более поправка равна нулю.
P - Атмосферное давление - приведенное к уровню моря атмосферное давление.
Po - Атмосферное давление - измеренное на уровне метеостанции атмосферное давление.
Tmin - Минимальная температура - минимум температуры воздуха на высоте 2 м над землей.
Tmax - Максимальная температура - максимум температуры воздуха на высоте 2 м над землей.
R - Количество осадков - Количество выпавших осадков за период времени, мм. При наведении курсора мыши на число - период времени, за который выпало указанное количество осадков.
R24 - Количество осадков - Количество выпавших осадков за 24 часа, мм.
S - Снежный покров - Высота снежного покрова, см. При наведении курсора мыши на число - состояние снежного покрова и степень покрытия местности в баллах.